Location: Aranbee
(34.0885°N, 118.2342°W)
Time: 16:06:20
(UTC+00:00)

A-11 Canister half - Pass Details

Date: 03 August 2021
Orbit: 1514 x 1685 km, 47.2° (Epoch: 17 September)

Event Time Altitude Azimuth Distance (km) Brightness Sun altitude
Rises 06:33:05 0° 305° (NW) 4,914 12.4 -34.6°
Reaches altitude 10° 06:36:13 10° 306° (NW) 3,936 11.7 -34.8°
Maximum altitude 06:46:26 88° 220° (SW) 1,688 9.0 -35.7°
Enters shadow 06:47:07 81° 137° (SE) 1,705 8.9 -35.7°
